Weather History for Bar Harbor, ME

Change the Weather History Date:

Wednesday, February 13, 2013

  Actual Average Record
Temperature  
Mean Temperature 34 °F -  
Max Temperature 42 °F 29 °F 50 °F (1951)
Min Temperature 26 °F 11 °F -16 °F (1954)
Degree Days  
Heating Degree Days 31    
Moisture  
Dew Point 27 °F    
Average Humidity 76    
Maximum Humidity 100    
Minimum Humidity 45    
Precipitation  
Precipitation 0.00 in - - ()
Sea Level Pressure  
Sea Level Pressure 29.74 in    
Wind  
Wind Speed 3 mph (WSW)    
Max Wind Speed 12 mph    
Max Gust Speed 16 mph    
Visibility 10 miles    
Events      
Averages and records for this station are not official NWS values.
T = Trace of Precipitation, MM = Missing Value Source: NWS Daily Summary

Daily Weather History Graph

Daily Weather History Graph

Search for Another Location

Airport:

Trip Planner

Search our weather history database for the weather conditions in past years. The results will help you decide how hot, cold, wet, or windy it might be!

Date:

Astronomy

Feb. 13, 2013 Rise Set
Actual Time 6:35 AM EST 4:59 PM EST
Civil Twilight 6:06 AM EST 5:29 PM EST
Nautical Twilight 5:31 AM EST 6:04 PM EST
Astronomical Twilight 4:58 AM EST 6:37 PM EST
Moon 7:52 AM EST (2/13) 9:11 PM EST (2/13)
Length of Visible Light 11h 23m
Length of Day
10h 23m
Waxing Crescent, 13% of the Moon is Illuminated
Feb 13
Waxing Crescent
Feb 17
First Quarter
Feb 25
Full
Mar 4
Last Quarter
Mar 11
New

Hourly Weather History & Observations

Time (EST) Temp. Windchill Dew Point Humidity Pressure Visibility Wind Dir Wind Speed Gust Speed Precip Events Conditions
12:15 AM 37.4 °F - 30.2 °F 75% 29.71 in 10.0 mi Calm Calm - N/A   Overcast
12:36 AM 37.4 °F - 28.4 °F 70% 29.70 in 10.0 mi Calm Calm - N/A   Overcast
12:55 AM 37.4 °F 34.9 °F 28.4 °F 70% 29.70 in 10.0 mi West 3.5 mph - N/A   Overcast
1:15 AM 35.6 °F - 28.4 °F 75% 29.70 in 10.0 mi Calm Calm - N/A   Mostly Cloudy
1:35 AM 35.6 °F - 28.4 °F 75% 29.69 in 10.0 mi Calm Calm - N/A   Partly Cloudy
1:55 AM 33.8 °F - 28.4 °F 81% 29.69 in 10.0 mi Calm Calm - N/A   Clear
2:15 AM 33.8 °F - 28.4 °F 81% 29.70 in 10.0 mi Calm Calm - N/A   Partly Cloudy
2:35 AM 33.8 °F 28.6 °F 28.4 °F 81% 29.70 in 10.0 mi WSW 5.8 mph - N/A   Clear
2:55 AM 32.0 °F 26.4 °F 28.4 °F 87% 29.70 in 10.0 mi WSW 5.8 mph - N/A   Clear
3:15 AM 33.8 °F 30.8 °F 28.4 °F 81% 29.71 in 10.0 mi WSW 3.5 mph - N/A   Clear
3:35 AM 32.0 °F 27.5 °F 28.4 °F 87% 29.71 in 10.0 mi SW 4.6 mph - N/A   Clear
3:55 AM 32.0 °F 28.7 °F 28.4 °F 87% 29.71 in 10.0 mi WSW 3.5 mph - N/A   Clear
4:16 AM 32.0 °F 28.7 °F 28.4 °F 87% 29.72 in 10.0 mi West 3.5 mph - N/A   Clear
4:35 AM 32.0 °F - 28.4 °F 87% 29.72 in 10.0 mi Calm Calm - N/A   Clear
4:55 AM 26.6 °F 22.6 °F 26.6 °F 100% 29.73 in 10.0 mi SSE 3.5 mph - N/A   Clear
5:15 AM 26.6 °F - 24.8 °F 93% 29.73 in 10.0 mi Calm Calm - N/A   Scattered Clouds
5:35 AM 26.6 °F - 26.6 °F 100% 29.74 in 10.0 mi Calm Calm - N/A   Overcast
5:55 AM 28.4 °F 24.6 °F 26.6 °F 93% 29.74 in 10.0 mi SW 3.5 mph - N/A   Overcast
6:15 AM 28.4 °F - 28.4 °F 100% 29.74 in 10.0 mi Calm Calm - N/A   Overcast
6:35 AM 30.2 °F - 28.4 °F 93% 29.75 in 10.0 mi Calm Calm - N/A   Overcast
6:55 AM 30.2 °F - 28.4 °F 93% 29.75 in 10.0 mi Calm Calm - N/A   Overcast
7:15 AM 30.2 °F - 28.4 °F 93% 29.75 in 10.0 mi Calm Calm - N/A   Overcast
7:35 AM 30.2 °F - 28.4 °F 93% 29.76 in 10.0 mi Calm Calm - N/A   Overcast
7:55 AM 32.0 °F 28.7 °F 30.2 °F 93% 29.76 in 10.0 mi WSW 3.5 mph - N/A   Overcast
8:15 AM 33.8 °F 30.8 °F 30.2 °F 87% 29.76 in 10.0 mi WSW 3.5 mph - N/A   Overcast
8:55 AM 35.6 °F 30.7 °F 26.6 °F 70% 29.77 in 10.0 mi SW 5.8 mph - N/A   Overcast
9:15 AM 35.6 °F 30.7 °F 26.6 °F 70% 29.77 in 10.0 mi WSW 5.8 mph - N/A   Overcast
9:35 AM 37.4 °F 30.8 °F 26.6 °F 65% 29.77 in 10.0 mi West 9.2 mph - N/A   Overcast
9:55 AM 37.4 °F 31.4 °F 24.8 °F 60% 29.77 in 10.0 mi NW 8.1 mph - N/A   Overcast
10:15 AM 37.4 °F 29.8 °F 24.8 °F 60% 29.77 in 10.0 mi West 11.5 mph 16.1 mph N/A   Mostly Cloudy
10:35 AM 39.2 °F 33.6 °F 24.8 °F 56% 29.77 in 10.0 mi NW 8.1 mph - N/A   Mostly Cloudy
10:55 AM 39.2 °F 33.6 °F 24.8 °F 56% 29.77 in 10.0 mi WNW 8.1 mph - N/A   Mostly Cloudy
11:15 AM 39.2 °F 35.9 °F 24.8 °F 56% 29.76 in 10.0 mi WSW 4.6 mph - N/A   Mostly Cloudy
11:35 AM 39.2 °F 33.6 °F 24.8 °F 56% 29.75 in 10.0 mi WSW 8.1 mph - N/A   Overcast
11:55 AM 39.2 °F 34.2 °F 24.8 °F 56% 29.74 in 10.0 mi West 6.9 mph - N/A   Scattered Clouds
12:15 PM 39.2 °F 35.0 °F 24.8 °F 56% 29.74 in 10.0 mi West 5.8 mph - N/A   Mostly Cloudy
12:35 PM 39.2 °F 34.2 °F 24.8 °F 56% 29.73 in 10.0 mi WSW 6.9 mph - N/A   Overcast
12:55 PM 39.2 °F 34.2 °F 24.8 °F 56% 29.73 in 10.0 mi West 6.9 mph - N/A   Overcast
1:15 PM 39.2 °F 35.9 °F 24.8 °F 56% 29.72 in 10.0 mi NW 4.6 mph - N/A   Overcast
1:35 PM 42.8 °F 41.1 °F 24.8 °F 49% 29.72 in 10.0 mi NW 3.5 mph - N/A   Overcast
1:55 PM 41.0 °F 38.0 °F 24.8 °F 53% 29.72 in 10.0 mi NNE 4.6 mph - N/A   Overcast
2:15 PM 41.0 °F 36.4 °F 23.0 °F 49% 29.73 in 10.0 mi West 6.9 mph - N/A   Overcast
2:35 PM 41.0 °F 37.1 °F 23.0 °F 49% 29.73 in 10.0 mi West 5.8 mph - N/A   Overcast
2:55 PM 41.0 °F 37.1 °F 21.2 °F 45% 29.74 in 10.0 mi WSW 5.8 mph - N/A   Overcast
3:15 PM 41.0 °F 39.0 °F 23.0 °F 49% 29.74 in 10.0 mi West 3.5 mph - N/A   Overcast
3:35 PM 39.2 °F 37.0 °F 23.0 °F 52% 29.73 in 10.0 mi West 3.5 mph - N/A   Overcast
3:55 PM 39.2 °F - 23.0 °F 52% 29.73 in 10.0 mi Calm Calm - N/A   Overcast
4:15 PM 37.4 °F 32.8 °F 28.4 °F 70% 29.74 in 10.0 mi SSW 5.8 mph - N/A   Overcast
4:35 PM 37.4 °F 33.8 °F 28.4 °F 70% 29.74 in 10.0 mi SW 4.6 mph - N/A   Overcast
4:55 PM 37.4 °F 33.8 °F 28.4 °F 70% 29.74 in 10.0 mi SSW 4.6 mph - N/A   Overcast
5:15 PM 35.6 °F 31.7 °F 28.4 °F 75% 29.74 in 10.0 mi SSW 4.6 mph - N/A   Overcast
5:35 PM 35.6 °F 32.8 °F 28.4 °F 75% 29.74 in 10.0 mi South 3.5 mph - N/A   Overcast
5:55 PM 35.6 °F 32.8 °F 28.4 °F 75% 29.74 in 10.0 mi South 3.5 mph - N/A   Overcast
6:15 PM 33.8 °F 30.8 °F 30.2 °F 87% 29.74 in 10.0 mi South 3.5 mph - N/A   Overcast
6:35 PM 33.8 °F - 30.2 °F 87% 29.74 in 10.0 mi Calm Calm - N/A   Overcast
6:55 PM 33.8 °F 30.8 °F 30.2 °F 87% 29.75 in 10.0 mi SSW 3.5 mph - N/A   Overcast
7:15 PM 33.8 °F 29.6 °F 30.2 °F 87% 29.76 in 10.0 mi SSW 4.6 mph - N/A   Overcast
7:35 PM 33.8 °F 30.8 °F 30.2 °F 87% 29.76 in 10.0 mi SSW 3.5 mph - N/A   Overcast
7:55 PM 33.8 °F 30.8 °F 30.2 °F 87% 29.76 in 10.0 mi SSW 3.5 mph - N/A   Overcast
8:15 PM 33.8 °F - 30.2 °F 87% 29.76 in 10.0 mi Calm Calm - N/A   Overcast
8:35 PM 33.8 °F - 30.2 °F 87% 29.76 in 10.0 mi Calm Calm - N/A   Overcast
8:55 PM 33.8 °F - 30.2 °F 87% 29.75 in 10.0 mi Calm Calm - N/A   Overcast
9:15 PM 32.0 °F - 30.2 °F 93% 29.75 in 10.0 mi Calm Calm - N/A   Overcast
9:35 PM 32.0 °F - 30.2 °F 93% 29.75 in 10.0 mi Calm Calm - N/A   Overcast
9:55 PM 30.2 °F - 30.2 °F 100% 29.74 in 10.0 mi Calm Calm - N/A   Overcast
10:15 PM 30.2 °F - 30.2 °F 100% 29.75 in 10.0 mi Calm Calm - N/A   Overcast
10:35 PM 30.2 °F - 28.4 °F 93% 29.75 in 10.0 mi Calm Calm - N/A   Overcast
10:55 PM 30.2 °F 26.7 °F 30.2 °F 100% 29.75 in 10.0 mi NW 3.5 mph - N/A   Overcast
11:15 PM 32.0 °F 27.5 °F 30.2 °F 93% 29.75 in 10.0 mi NW 4.6 mph - N/A   Overcast
11:55 PM 33.8 °F 27.7 °F 24.8 °F 70% 29.74 in 10.0 mi North 6.9 mph - N/A   Overcast